Location: D�derode
(51.8092°N, 10.1065°E)
Time: 06:22:02
(UTC+00:00)

YAOGAN 6 - Pass Details

Date: 01 December 2020
Orbit: 466 x 502 km, 97.0° (Epoch: 23 January)

Event Time Altitude Azimuth Distance (km) Brightness Sun altitude
Rises 16:47:09 0° 183° (S) 2,564 6.5 -13.9°
Reaches altitude 10° 16:49:19 10° 191° (S) 1,681 5.7 -14.2°
Maximum altitude 16:52:44 40° 262° (W) 735 4.1 -14.7°
Drops below altitude 10° 16:56:09 10° 334° (NNW) 1,675 5.4 -15.2°
Sets 16:58:19 0° 342° (NNW) 2,554 6.3 -15.5°
